Date String (YYYY-MM-DD hh:mm:ss) UTC,Instrument flags,absolute air pressure of the measurement (hPa),sample flow rate (lpm),inlet stack bypass flow (lpm),air temperature of the measurement (°C),ambient temperature measured by the external sensor (°C),aerosol sample conditioner tube jacket temperature (°C),OPC LED temperature (°C),internal box temperature (°C),relative humidity of the measurement (%),span deviation,mass concentration of particles derived from Lorenz-Mie calculation of OPC scattering (μg/m³),mass concentration of particles derived from Lorenz-Mie calculation of OPC scattering (μg/m³),mass concentration of particles derived from Lorenz-Mie calculation of OPC scattering (μg/m³)
DateTimeUTC,F1_M11,P_M11,Q1_M11,Q2_M11,T1_M11,T2_M11,T3_M11,T4_M11,T5_M11,U1_M11,ZSPAN_M11,X0_M11,X2_M11,X1_M11
2024-05-19 13:00:00,SystemResetWarning,0825.2,5.00,000.00,025.7,025.1,000.0,033.8,027.5,021.5,0000.0,0006.76,0003.29,0002.38
2024-05-19 13:01:00,SystemResetWarning,0825.1,5.00,000.00,025.7,025.1,000.0,033.8,027.5,021.3,0000.0,0006.61,0003.26,0002.38
2024-05-19 13:02:00,SystemResetWarning,0825.1,5.00,000.00,025.7,025.1,000.0,033.8,027.5,021.2,0000.0,0006.64,0003.27,0002.38
2024-05-19 13:03:00,SystemResetWarning,0825.2,4.99,000.00,025.7,025.1,000.0,033.8,027.5,020.9,0000.0,0006.55,0003.31,0002.36
2024-05-19 13:04:00,SystemResetWarning,0825.2,5.00,000.00,025.7,025.1,000.0,033.8,027.5,020.8,0000.0,0006.38,0003.32,0002.37
2024-05-19 13:05:00,SystemResetWarning,0825.2,5.00,000.00,025.8,025.1,000.0,033.8,027.5,021.1,0000.0,0006.55,0003.32,0002.38
2024-05-19 13:06:00,SystemResetWarning,0825.2,5.00,000.00,025.8,025.1,000.0,033.9,027.5,020.9,0000.0,0006.60,0003.35,0002.39
2024-05-19 13:07:00,SystemResetWarning,0825.2,5.00,000.00,025.8,025.1,000.0,033.9,027.5,020.6,0000.0,0006.73,0003.37,0002.40
2024-05-19 13:08:00,SystemResetWarning,0825.2,5.00,000.00,025.8,025.1,000.0,033.9,027.5,021.1,0000.0,0006.86,0003.39,0002.41
2024-05-19 13:09:00,SystemResetWarning,0825.2,5.00,000.00,025.8,025.1,000.0,033.9,027.6,022.4,0000.0,0007.36,0003.37,0002.41
2024-05-19 13:10:00,SystemResetWarning,0825.3,5.00,000.00,025.8,025.1,000.0,033.9,027.6,022.3,0000.0,0007.35,0003.37,0002.43
2024-05-19 13:11:00,SystemResetWarning,0825.2,5.00,000.00,025.8,025.2,000.0,033.9,027.6,022.1,0000.0,0007.45,0003.35,0002.42
2024-05-19 13:12:00,SystemResetWarning,0825.2,5.00,000.00,025.8,025.0,000.0,033.9,027.5,021.7,0000.0,0007.80,0003.40,0002.43
2024-05-19 13:13:00,SystemResetWarning,0825.1,4.99,000.00,025.6,023.2,000.0,034.0,026.5,021.3,0000.0,0008.10,0003.41,0002.44
2024-05-19 13:14:00,SystemResetWarning,0825.1,5.02,000.00,025.2,022.2,000.0,034.0,026.0,021.3,0000.0,0008.28,0003.39,0002.46
2024-05-19 13:15:00,SystemResetWarning,0825.1,5.00,000.00,025.0,022.4,000.0,033.9,026.0,021.9,0000.0,0008.04,0003.35,0002.45
2024-05-19 13:16:00,SystemResetWarning,0825.1,5.00,000.00,025.0,022.7,000.0,033.7,026.2,022.6,0000.0,0008.03,0003.35,0002.45
2024-05-19 13:17:00,SystemResetWarning,0825.1,4.99,000.00,025.0,023.1,000.0,033.6,026.4,022.5,0000.0,0008.42,0003.34,0002.45
2024-05-19 13:18:00,SystemResetWarning,0825.1,4.99,000.00,025.0,023.3,000.0,033.6,026.5,022.4,0000.0,0008.63,0003.32,0002.44
2024-05-19 13:19:00,SystemResetWarning,0825.1,5.01,000.00,025.0,023.6,000.0,033.5,026.6,022.9,0000.0,0008.62,0003.29,0002.42
2024-05-19 13:20:00,SystemResetWarning,0825.1,5.01,000.00,025.0,023.8,000.0,033.5,026.7,022.8,0000.0,0008.26,0003.31,0002.43
2024-05-19 13:21:00,SystemResetWarning,0825.1,4.99,000.00,025.1,024.0,000.0,033.4,026.7,022.3,0000.0,0008.20,0003.32,0002.42
2024-05-19 13:22:00,SystemResetWarning,0825.1,4.98,000.00,025.1,024.1,000.0,033.4,026.8,022.7,0000.0,0008.31,0003.34,0002.43
2024-05-19 13:23:00,SystemResetWarning,0825.1,5.01,000.00,025.1,024.2,000.0,033.4,026.9,022.2,0000.0,0008.54,0003.33,0002.42
2024-05-19 13:24:00,SystemResetWarning,0825.1,5.01,000.00,025.2,024.3,000.0,033.4,026.9,021.5,0000.0,0008.27,0003.30,0002.42
2024-05-19 13:25:00,SystemResetWarning,0825.1,5.01,000.00,025.2,024.4,000.0,033.4,027.0,021.3,0000.0,0007.96,0003.28,0002.42
2024-05-19 13:26:00,SystemResetWarning,0825.1,4.98,000.00,025.2,024.5,000.0,033.4,027.0,021.8,0000.0,0008.04,0003.29,0002.41
2024-05-19 13:27:00,SystemResetWarning,0825.1,5.00,000.00,025.2,024.5,000.0,033.4,027.0,021.8,0000.0,0007.98,0003.28,0002.41
2024-05-19 13:28:00,SystemResetWarning,0825.1,5.01,000.00,025.3,024.6,000.0,033.4,027.1,022.7,0000.0,0007.79,0003.28,0002.41
2024-05-19 13:29:00,SystemResetWarning,0825.1,5.01,000.00,025.3,024.7,000.0,033.4,027.1,023.8,0000.0,0007.39,0003.27,0002.40
2024-05-19 13:30:00,SystemResetWarning,0825.1,4.99,000.00,025.3,024.7,000.0,033.4,027.1,023.9,0000.0,0007.38,0003.28,0002.40
2024-05-19 13:31:00,SystemResetWarning,0825.1,4.99,000.00,025.4,024.7,000.0,033.5,027.2,024.0,0000.0,0007.34,0003.28,0002.42
2024-05-19 13:32:00,SystemResetWarning,0825.1,5.00,000.00,025.4,024.8,000.0,033.5,027.2,023.6,0000.0,0007.29,0003.27,0002.43
2024-05-19 13:33:00,SystemResetWarning,0825.1,5.01,000.00,025.4,024.8,000.0,033.5,027.2,022.7,0000.0,0007.29,0003.28,0002.44
2024-05-19 13:34:00,SystemResetWarning,0825.0,5.01,000.00,025.5,024.8,000.0,033.5,027.2,022.2,0000.0,0006.56,0003.28,0002.46
2024-05-19 13:35:00,SystemResetWarning,0825.1,5.00,000.00,025.5,024.9,000.0,033.5,027.3,022.2,0000.0,0006.48,0003.28,0002.47
2024-05-19 13:36:00,SystemResetWarning,0825.0,5.00,000.00,025.5,024.9,000.0,033.6,027.3,021.8,0000.0,0006.09,0003.25,0002.48
2024-05-19 13:37:00,SystemResetWarning,0825.0,4.98,000.00,025.5,024.9,000.0,033.6,027.3,021.5,0000.0,0005.95,0003.25,0002.49
2024-05-19 13:38:00,SystemResetWarning,0825.0,5.01,000.00,025.6,025.0,000.0,033.6,027.3,021.6,0000.0,0005.90,0003.25,0002.48
2024-05-19 13:39:00,SystemResetWarning,0824.9,5.01,000.00,025.6,025.0,000.0,033.6,027.4,021.0,0000.0,0006.14,0003.24,0002.47
2024-05-19 13:40:00,SystemResetWarning,0824.9,5.00,000.00,025.6,025.0,000.0,033.6,027.4,020.7,0000.0,0006.26,0003.24,0002.47
2024-05-19 13:41:00,SystemResetWarning,0824.9,4.98,000.00,025.6,024.7,000.0,033.7,027.2,021.2,0000.0,0006.10,0003.23,0002.50
2024-05-19 13:42:00,SystemResetWarning,0824.9,4.99,000.00,025.3,022.8,000.0,033.8,026.2,021.5,0000.0,0006.37,0003.22,0002.48
2024-05-19 13:43:00,SystemResetWarning,0824.9,5.02,000.00,025.0,022.3,000.0,033.8,025.9,021.7,0000.0,0006.47,0003.22,0002.47
2024-05-19 13:44:00,SystemResetWarning,0824.9,4.98,000.00,024.9,022.5,000.0,033.6,025.9,021.5,0000.0,0006.44,0003.22,0002.46
2024-05-19 13:45:00,SystemResetWarning,0824.9,5.00,000.00,024.8,022.8,000.0,033.5,026.1,021.5,0000.0,0006.57,0003.23,0002.43
2024-05-19 13:46:00,SystemResetWarning,0824.9,5.01,000.00,024.8,023.1,000.0,033.4,026.3,022.6,0000.0,0007.62,0003.24,0002.43
2024-05-19 13:47:00,SystemResetWarning,0824.9,5.01,000.00,024.9,023.4,000.0,033.4,026.5,024.1,0000.0,0007.68,0003.26,0002.43
2024-05-19 13:48:00,SystemResetWarning,0824.9,5.00,000.00,024.9,023.6,000.0,033.3,026.6,024.2,0000.0,0007.71,0003.25,0002.42
2024-05-19 13:49:00,SystemResetWarning,0824.9,5.00,000.00,024.9,023.8,000.0,033.3,026.6,024.8,0000.0,0007.80,0003.27,0002.44
2024-05-19 13:50:00,SystemResetWarning,0824.9,5.00,000.00,025.0,024.0,000.0,033.3,026.7,024.6,0000.0,0007.67,0003.27,0002.45
2024-05-19 13:51:00,SystemResetWarning,0824.9,5.01,000.00,025.0,024.1,000.0,033.3,026.8,024.3,0000.0,0007.49,0003.26,0002.47
2024-05-19 13:52:00,SystemResetWarning,0824.9,4.99,000.00,025.0,024.2,000.0,033.3,026.8,024.6,0000.0,0007.48,0003.26,0002.46
2024-05-19 13:53:00,SystemResetWarning,0824.9,4.99,000.00,025.1,024.3,000.0,033.3,026.8,024.5,0000.0,0007.42,0003.27,0002.47
2024-05-19 13:54:00,SystemResetWarning,0824.9,5.00,000.00,025.1,024.4,000.0,033.3,026.9,023.5,0000.0,0007.34,0003.27,0002.47
2024-05-19 13:55:00,SystemResetWarning,0824.9,5.00,000.00,025.1,024.5,000.0,033.3,026.9,023.9,0000.0,0007.48,0003.25,0002.47
2024-05-19 13:56:00,SystemResetWarning,0824.9,5.01,000.00,025.2,024.5,000.0,033.3,027.0,023.7,0000.0,0007.31,0003.25,0002.49
2024-05-19 13:57:00,SystemResetWarning,0824.9,4.98,000.00,025.2,024.6,000.0,033.3,027.0,023.2,0000.0,0006.19,0003.24,0002.50
2024-05-19 13:58:00,SystemResetWarning,0824.9,5.00,000.00,025.3,024.6,000.0,033.3,027.1,022.6,0000.0,0005.91,0003.23,0002.49
2024-05-19 13:59:00,SystemResetWarning,0824.9,5.00,000.00,025.3,024.7,000.0,033.4,027.1,022.9,0000.0,0005.86,0003.25,0002.50
